Time,TemperatureF,DewpointF,PressureIn,WindDirection,WindDirectionDegrees,WindSpeedMPH,WindSpeedGustMPH,Humidity,HourlyPrecipIn,Conditions,Clouds,dailyrainin,SolarRadiationWatts/m^2,SoftwareType,DateUTC
2013-04-27 00:00:00,53.0,39.0,-100.00,South,180,3.0,-999.0,59,-99.99,,,-99.99,0.000000,,2013-04-27 04:00:00,
2013-04-27 00:43:00,53.0,39.0,-100.00,South,180,3.0,-999.0,59,-99.99,,,-99.99,0.000000,,2013-04-27 04:43:00,
2013-04-27 00:53:00,53.0,39.0,-100.00,South,180,3.0,-999.0,59,-99.99,,,-99.99,0.000000,,2013-04-27 04:53:00,
2013-04-27 01:00:00,51.0,39.0,-100.00,SSE,157,3.0,-999.0,62,-99.99,,,-99.99,0.000000,,2013-04-27 05:00:00,
2013-04-27 01:42:00,51.0,39.0,-100.00,SSE,157,3.0,-999.0,62,-99.99,,,-99.99,0.000000,,2013-04-27 05:42:00,
2013-04-27 01:52:00,51.0,39.0,-100.00,SSE,157,3.0,-999.0,62,-99.99,,,-99.99,0.000000,,2013-04-27 05:52:00,
2013-04-27 03:00:00,49.0,38.0,-100.00,South,180,3.0,-999.0,65,-99.99,,,-99.99,0.000000,,2013-04-27 07:00:00,
2013-04-27 03:42:00,49.0,38.0,-100.00,South,180,3.0,-999.0,65,-99.99,,,-99.99,0.000000,,2013-04-27 07:42:00,
2013-04-27 03:52:00,49.0,38.0,-100.00,South,180,3.0,-999.0,65,-99.99,,,-99.99,0.000000,,2013-04-27 07:52:00,
2013-04-27 04:00:00,48.0,37.0,-100.00,South,180,2.0,-999.0,65,-99.99,,,-99.99,0.000000,,2013-04-27 08:00:00,
2013-04-27 04:42:00,48.0,37.0,-100.00,South,180,2.0,-999.0,65,-99.99,,,-99.99,0.000000,,2013-04-27 08:42:00,
2013-04-27 04:52:00,48.0,37.0,-100.00,South,180,2.0,-999.0,65,-99.99,,,-99.99,0.000000,,2013-04-27 08:52:00,
2013-04-27 05:00:00,46.0,37.0,-100.00,SE,135,2.0,-999.0,68,-99.99,,,-99.99,0.000000,,2013-04-27 09:00:00,
2013-04-27 05:43:00,46.0,37.0,-100.00,SE,135,2.0,-999.0,68,-99.99,,,-99.99,0.000000,,2013-04-27 09:43:00,
2013-04-27 05:53:00,46.0,37.0,-100.00,SE,135,2.0,-999.0,68,-99.99,,,-99.99,0.000000,,2013-04-27 09:53:00,
2013-04-27 06:00:00,44.0,36.0,-100.00,SE,135,2.0,-999.0,75,-99.99,,,-99.99,0.000000,,2013-04-27 10:00:00,
2013-04-27 06:42:00,44.0,36.0,-100.00,SE,135,2.0,-999.0,75,-99.99,,,-99.99,0.000000,,2013-04-27 10:42:00,
2013-04-27 06:52:00,44.0,36.0,-100.00,SE,135,2.0,-999.0,75,-99.99,,,-99.99,0.000000,,2013-04-27 10:52:00,
2013-04-27 07:00:00,43.0,36.0,-100.00,SE,135,2.0,-999.0,77,-99.99,,,-99.99,2.320000,,2013-04-27 11:00:00,
2013-04-27 07:42:00,43.0,36.0,-100.00,SE,135,2.0,-999.0,77,-99.99,,,-99.99,2.320000,,2013-04-27 11:42:00,
2013-04-27 07:52:00,43.0,36.0,-100.00,SE,135,2.0,-999.0,77,-99.99,,,-99.99,2.320000,,2013-04-27 11:52:00,
2013-04-27 08:00:00,45.0,37.0,-100.00,SE,135,2.0,-999.0,73,-99.99,,,-99.99,73.080002,,2013-04-27 12:00:00,
2013-04-27 08:42:00,45.0,37.0,-100.00,SE,135,2.0,-999.0,73,-99.99,,,-99.99,73.080002,,2013-04-27 12:42:00,
2013-04-27 08:52:00,45.0,37.0,-100.00,SE,135,2.0,-999.0,73,-99.99,,,-99.99,73.080002,,2013-04-27 12:52:00,
2013-04-27 10:00:00,55.0,41.0,-100.00,South,180,3.0,-999.0,59,-99.99,,,-99.99,394.399994,,2013-04-27 14:00:00,
2013-04-27 10:42:00,55.0,41.0,-100.00,South,180,3.0,-999.0,59,-99.99,,,-99.99,394.399994,,2013-04-27 14:42:00,
2013-04-27 10:52:00,55.0,41.0,-100.00,South,180,3.0,-999.0,59,-99.99,,,-99.99,394.399994,,2013-04-27 14:52:00,
2013-04-27 11:00:00,59.0,43.0,-100.00,SSE,157,4.0,-999.0,56,-99.99,,,-99.99,547.520020,,2013-04-27 15:00:00,
2013-04-27 11:43:00,59.0,43.0,-100.00,SSE,157,4.0,-999.0,56,-99.99,,,-99.99,547.520020,,2013-04-27 15:43:00,
2013-04-27 11:53:00,59.0,43.0,-100.00,SSE,157,4.0,-999.0,56,-99.99,,,-99.99,547.520020,,2013-04-27 15:53:00,
2013-04-27 13:00:00,64.0,39.0,-100.00,SSE,157,8.0,-999.0,39,-99.99,,,-99.99,745.880005,,2013-04-27 17:00:00,
2013-04-27 13:42:00,64.0,39.0,-100.00,SSE,157,8.0,-999.0,39,-99.99,,,-99.99,745.880005,,2013-04-27 17:42:00,
2013-04-27 13:53:00,64.0,39.0,-100.00,SSE,157,8.0,-999.0,39,-99.99,,,-99.99,745.880005,,2013-04-27 17:53:00,
2013-04-27 14:00:00,65.0,36.0,-100.00,SE,135,8.0,-999.0,34,-99.99,,,-99.99,742.400024,,2013-04-27 18:00:00,
2013-04-27 14:42:00,65.0,36.0,-100.00,SE,135,8.0,-999.0,34,-99.99,,,-99.99,742.400024,,2013-04-27 18:42:00,
2013-04-27 14:52:00,65.0,36.0,-100.00,SE,135,8.0,-999.0,34,-99.99,,,-99.99,742.400024,,2013-04-27 18:52:00,
2013-04-27 15:00:00,67.0,35.0,-100.00,SSE,157,8.0,-999.0,31,-99.99,,,-99.99,715.719971,,2013-04-27 19:00:00,
2013-04-27 15:42:00,67.0,35.0,-100.00,SSE,157,8.0,-999.0,31,-99.99,,,-99.99,715.719971,,2013-04-27 19:42:00,
2013-04-27 15:53:00,67.0,35.0,-100.00,SSE,157,8.0,-999.0,31,-99.99,,,-99.99,715.719971,,2013-04-27 19:53:00,
2013-04-27 16:00:00,67.0,34.0,-100.00,SSE,157,8.0,-999.0,29,-99.99,,,-99.99,696.000000,,2013-04-27 20:00:00,
2013-04-27 16:42:00,67.0,34.0,-100.00,SSE,157,8.0,-999.0,29,-99.99,,,-99.99,696.000000,,2013-04-27 20:42:00,
2013-04-27 16:52:00,67.0,34.0,-100.00,SSE,157,8.0,-999.0,29,-99.99,,,-99.99,696.000000,,2013-04-27 20:52:00,
2013-04-27 17:00:00,68.0,33.0,-100.00,SSE,157,8.0,-999.0,26,-99.99,,,-99.99,588.119995,,2013-04-27 21:00:00,
2013-04-27 17:43:00,68.0,33.0,-100.00,SSE,157,8.0,-999.0,26,-99.99,,,-99.99,588.119995,,2013-04-27 21:43:00,
2013-04-27 17:53:00,68.0,33.0,-100.00,SSE,157,8.0,-999.0,26,-99.99,,,-99.99,588.119995,,2013-04-27 21:53:00,
2013-04-27 18:00:00,68.0,33.0,-100.00,SSE,157,7.0,-999.0,26,-99.99,,,-99.99,468.640015,,2013-04-27 22:00:00,
2013-04-27 18:42:00,68.0,33.0,-100.00,SSE,157,7.0,-999.0,26,-99.99,,,-99.99,468.640015,,2013-04-27 22:42:00,
2013-04-27 18:53:00,68.0,33.0,-100.00,SSE,157,7.0,-999.0,26,-99.99,,,-99.99,468.640015,,2013-04-27 22:53:00,
2013-04-27 19:00:00,68.0,34.0,-100.00,SSE,157,7.0,-999.0,28,-99.99,,,-99.99,298.119995,,2013-04-27 23:00:00,
2013-04-27 19:42:00,68.0,34.0,-100.00,SSE,157,7.0,-999.0,28,-99.99,,,-99.99,298.119995,,2013-04-27 23:42:00,
2013-04-27 19:52:00,68.0,34.0,-100.00,SSE,157,7.0,-999.0,28,-99.99,,,-99.99,298.119995,,2013-04-27 23:52:00,
2013-04-27 21:00:00,63.0,37.0,-100.00,SE,135,3.0,-999.0,37,-99.99,,,-99.99,15.080000,,2013-04-28 01:00:00,
2013-04-27 21:42:00,63.0,37.0,-100.00,SE,135,3.0,-999.0,37,-99.99,,,-99.99,15.080000,,2013-04-28 01:42:00,
2013-04-27 21:52:00,63.0,37.0,-100.00,SE,135,3.0,-999.0,37,-99.99,,,-99.99,15.080000,,2013-04-28 01:52:00,
2013-04-27 22:00:00,58.0,40.0,-100.00,ESE,112,1.0,-999.0,52,-99.99,,,-99.99,0.000000,,2013-04-28 02:00:00,
2013-04-27 22:42:00,58.0,40.0,-100.00,ESE,112,1.0,-999.0,52,-99.99,,,-99.99,0.000000,,2013-04-28 02:42:00,
2013-04-27 22:52:00,58.0,40.0,-100.00,ESE,112,1.0,-999.0,52,-99.99,,,-99.99,0.000000,,2013-04-28 02:52:00,
2013-04-27 23:00:00,57.0,41.0,-100.00,East,90,1.0,-999.0,55,-99.99,,,-99.99,0.000000,,2013-04-28 03:00:00,
2013-04-27 23:43:00,57.0,41.0,-100.00,East,90,1.0,-999.0,55,-99.99,,,-99.99,0.000000,,2013-04-28 03:43:00,
2013-04-27 23:53:00,57.0,41.0,-100.00,East,90,1.0,-999.0,55,-99.99,,,-99.99,0.000000,,2013-04-28 03:53:00,